www.pogodaiklimat.ru
ПОГОДА в Эль-Калафате

Архив погоды в Эль-Калафате (Аргентина)

Время
(UTC), дата
10 6.04
11 6.04
12 6.04
13 6.04
14 6.04
15 6.04
16 6.04
17 6.04
18 6.04
19 6.04
20 6.04
21 6.04
22 6.04
23 6.04
00 7.04
01 7.04
02 7.04
03 7.04
04 7.04
05 7.04
06 7.04
07 7.04
08 7.04
09 7.04
10 7.04
11 7.04
12 7.04
13 7.04
14 7.04
15 7.04
16 7.04
17 7.04
18 7.04
19 7.04
20 7.04
21 7.04
22 7.04
23 7.04
00 8.04
01 8.04
02 8.04
03 8.04
04 8.04
05 8.04
06 8.04
07 8.04
08 8.04
09 8.04
10 8.04
11 8.04
12 8.04
13 8.04
14 8.04
15 8.04
16 8.04
17 8.04
18 8.04
19 8.04
20 8.04
21 8.04
22 8.04
23 8.04
00 9.04
01 9.04
02 9.04
03 9.04
04 9.04
05 9.04
06 9.04
07 9.04
08 9.04
09 9.04
10 9.04
11 9.04
12 9.04
13 9.04
14 9.04
15 9.04
16 9.04
17 9.04
18 9.04
19 9.04
20 9.04
21 9.04
22 9.04
23 9.04
00 10.04
01 10.04
02 10.04
03 10.04
04 10.04
05 10.04
06 10.04
07 10.04
08 10.04
09 10.04
10 10.04
11 10.04
12 10.04
13 10.04
14 10.04
15 10.04
16 10.04
17 10.04
18 10.04
19 10.04
20 10.04
21 10.04
22 10.04
23 10.04
00 11.04
01 11.04
02 11.04
03 11.04
04 11.04
05 11.04
06 11.04
07 11.04
08 11.04
09 11.04
10 11.04
11 11.04
12 11.04
13 11.04
14 11.04
15 11.04
16 11.04
17 11.04
18 11.04
19 11.04
20 11.04
21 11.04
22 11.04
23 11.04
00 12.04
01 12.04
02 12.04
03 12.04
04 12.04
05 12.04
06 12.04
07 12.04
08 12.04
09 12.04
11 12.04
12 12.04
13 12.04
14 12.04
15 12.04
16 12.04
17 12.04
18 12.04
19 12.04
20 12.04
21 12.04
22 12.04
23 12.04
00 13.04
01 13.04
02 13.04
03 13.04
04 13.04
05 13.04
06 13.04
07 13.04
08 13.04
Ветер
(напр.,м/с)
Видим. Явления Облачность Т
(С)
Тd
(С)
f
(%)
Тe
(С)
Тes
(С)
Комфортность P
(гПа)
Po
(гПа)
Тmin
(С)
Tmax
(С)
R
(мм)
R24
(мм)
S
(см)
З 11 30 км 9/1 900 м
[Sc diur, vesp Ac As Cs]
+12.0 +3.5 56 +8 +8 985.7 962.2
З 8 20 км осадки на расстоянии 9/1 900 м
[Sc diur, vesp As trans Cs]
+11.0 +4.4 64 +8 +8 986.5 962.9
З 8 20 км слаб. дождь 6/1 750 м
[St As op Cs]
+9.0 +3.5 68 +5 +5 988.0 964.2 +8.6 +17.7 0.0
З 12 20 км в посл. час дождь туман 6/1 750 м
[St Ac As Ci]
+9.4 +2.4 62 +5 +5 989.9 966.1
З 11 20 км осадки на расстоянии 6/1 750 м
[St Ac As Ci]
+9.4 +0.6 54 +5 +5 992.7 968.9
З 10 30 км 4/3 1050 м
[Sc diur, vesp Ac As]
+10.2 -2.3 41 +6 +7 993.5 969.7
З 16 20 км слаб. дождь 6/3 750 м
[Sc diur, vesp As op Cs]
+9.8 +1.1 55 +5 +5 995.9 972.0
З 14 20 км слаб. дождь 6/3 750 м
[Sc diur, vesp As op Cs]
+8.2 +0.8 60 +3 +3 997.5 973.4
З 12 20 км слаб. дождь 6/3 900 м
[Cu Sc As op Cs]
+8.6 +0.7 58 +3 +3 998.0 973.8 0.0
З 14 20 км слаб. дождь 6/3 750 м
[Cu Sc As op Cs]
+9.4 -0.7 49 +4 +4 999.6 975.4
З 8 30 км в посл. час дождь 4/3 1050 м
[Cu Sc Ac As]
+8.4 -0.8 52 +4 +5 1001.1 976.9
З 9 10 км осадки на расстоянии {дождь} 4/3 900 м
[Cu Sc Ac As]
+7.6 0.0 59 +3 +3 1002.3 978.0
З 6 30 км 4/3 900 м
[Sc diur, vesp Ac As]
+6.2 -1.9 56 +2 +2 1003.1 978.6
З 6 30 км 4/3 900 м
[Sc diur, vesp Ac As]
+5.2 -1.9 60 +1 +1 1003.9 979.4
З 5 30 км {дождь} 4/3 900 м
[Sc diur, vesp Ac As]
+5.4 -3.0 55 +1 +1 1004.7 980.1 +5.0 +10.4 0.0
З 6 30 км 4/3 900 м
[Sc diur, vesp Ac As]
+5.0 -2.9 57 0 0 1005.1 980.5
З 5 30 км 4/3 900 м
[Sc diur, vesp Ac As]
+4.8 -4.6 51 +1 +1 1005.9 981.2
З 7 30 км 4/3 900 м
[Sc diur, vesp Ac As]
+5.4 -3.7 52 +1 +1 1006.4 981.8
З 5 30 км 4/3 900 м
[Sc diur, vesp Ac As]
+4.8 -3.9 53 +1 +1 1005.9 981.3
ЮЗ 4 30 км 4/3 900 м
[Sc diur, vesp Ac As]
+4.8 -8.1 39 +2 +2 1005.1 980.4
З 4 30 км 3/3 900 м
[Sc diur, vesp]
+4.6 -7.5 41 +1 +1 1005.3 980.6
З 4 30 км 3/3 900 м
[Sc diur, vesp]
+4.4 -6.9 44 +1 +1 1004.6 980.0
СВ 3 30 км 3/3 900 м
[Sc diur, vesp]
+4.4 -6.9 44 +1 +1 1004.3 979.6
нст 1 30 км 3/3 900 м
[Sc diur, vesp]
+4.8 -3.1 57 +5 +5 1003.6 978.9
З 4 30 км 3/3 900 м
[Sc diur, vesp]
+6.0 -4.4 47 +3 +3 1003.1 978.4
нст 1 30 км 3/3 900 м
[Sc diur, vesp Ac As]
+6.0 -3.6 50 +5 +5 1002.8 978.1
З 7 30 км 3/3 900 м
[Sc diur, vesp Ac As]
+6.6 -5.0 43 +2 +2 1001.8 977.0 +1.6 +6.7 0.0
З 6 30 км 3/3 900 м
[Sc diur, vesp Ac As]
+8.6 -5.0 38 +5 +6 1000.9 976.2
З 8 30 км 3/3 900 м
[Sc diur, vesp Ac As]
+10.0 -5.0 34 +7 +7 1000.0 975.4
З 8 30 км 3/3 900 м
[Sc diur, vesp Ac As]
+10.8 -3.5 36 +8 +8 999.3 974.9
З 15 30 км 3/3 900 м
[Sc diur, vesp Ac As]
+11.8 -2.6 36 +8 +8 998.3 973.8
З 12 30 км 3/3 900 м
[Sc diur, vesp Ac As]
+11.8 -2.6 36 +8 +8 998.0 973.6
З 13 30 км 3/3 900 м
[Sc diur, vesp Ac As]
+12.2 -0.5 41 +9 +9 996.6 972.2
З 10 30 км 3/3 900 м
[Sc diur, vesp Ac As]
+12.4 -0.8 40 +9 +9 996.2 971.8
З 7 30 км 3/3 900 м
[Sc diur, vesp Ac As]
+12.4 -2.3 36 +10 +11 995.4 971.0
З 9 20 км осадки на расстоянии 4/3 750 м
[St Ac As]
+10.8 -2.0 41 +7 +7 995.3 970.9
З 10 15 км осадки на расстоянии 5/4 750 м
[St Ac As]
+8.0 +1.1 62 +3 +3 995.9 971.4
З 10 30 км осадки на расстоянии 9/4 750 м
[St Ac As]
+7.2 +1.9 69 +2 +2 997.2 972.6
ЮЗ 7 25 км осадки на расстоянии 9/4 750 м
[St Ac As]
+5.6 +2.2 79 +1 +1 997.5 973.0 +5.5 +12.9
штиль 0 50 км ?/? +6.4 +0.9 68 +6 +6 998.9 974.4
З 6 30 км 9/4 750 м
[St Ac As]
+6.0 +0.4 67 +2 +2 998.8 974.4
З 6 30 км 9/4 750 м
[St Ac As]
+6.0 -1.5 59 +2 +2 999.5 975.0
З 4 30 км 8/4 750 м
[St Ac As]
+5.4 +0.2 69 +2 +2 999.8 975.4
З 4 30 км 8/3 900 м
[St Ac As]
+4.0 +0.3 77 0 0 1000.3 975.8
З 5 30 км 6/3 900 м
[St Ac As]
+3.8 +0.7 80 -1 -1 1000.5 976.0
З 3 30 км 6/3 900 м
[St Ac As Cs]
+3.4 -1.0 73 -0 -0 1000.6 976.1
ЮЗ 3 30 км 6/3 900 м
[St Ac As Cs]
+1.4 -2.1 77 -3 -3 1000.7 976.1
нст 1 30 км 8/1 900 м
[St Ac As Cs]
+0.6 -3.0 77 -1 -1 1001.4 976.6
ЮВ 1 30 км 8/1 750 м
[St Ac As Cs]
-1.2 -3.7 83 -3 -3 1002.7 977.8
З 7 25 км осадки на расстоянии 10/3 750 м
[St Ac As Cs]
+3.4 -1.0 73 -3 -3 1003.4 987.6
ЮЗ 4 30 км 9/4 750 м
[Cu Sc Ac As Cs]
+2.4 -2.2 72 -2 -2 1004.8 979.8 -2.0 +6.7
нст 1 25 км осадки на расстоянии 9/4 600 м
[Cu Sc As op Cs]
+2.8 +1.2 89 +1 +2 1006.7 981.8
З 8 30 км 8/4 600 м
[Cu Sc Ac As Cs]
+4.2 -2.6 61 -1 -1 1008.0 983.3
З 10 30 км 5/5 900 м
[Cu Sc Ac As]
+5.6 -5.0 46 0 0 1008.8 984.2
З 9 30 км 5/5 900 м
[Cu Sc Ci]
+6.8 -6.4 38 +2 +2 1009.8 985.2
З 10 30 км 5/3 1050 м
[Cu Sc Ac As Cs]
+7.2 -8.5 32 +3 +3 1010.8 985.8
З 10 30 км 5/3 1200 м
[Cu Sc Ac cast Cs]
+7.8 -8.3 31 +3 +4 1011.0 986.1
З 9 30 км 6/3 1200 м
[Cu Sc Ac cast Cs]
+7.4 -8.1 32 +3 +3 1011.7 986.6
З 8 30 км 6/3 1200 м
[Sc diur, vesp Ac As Ci]
+7.0 -7.0 36 +3 +3 1012.8 987.7
З 8 30 км 8/1 1050 м
[Sc diur, vesp Ac As Cs]
+6.0 -6.9 39 +1 +1 1013.3 988.1
З 9 30 км 9/1 900 м
[Sc diur, vesp Ac As Cs]
+5.8 -7.3 38 +1 +1 1013.8 988.5
З 9 30 км 9/1 900 м
[Sc diur, vesp Ac As Cs]
+5.2 -6.5 43 -0 -0 1014.2 989.0
З 8 30 км 9/1 900 м
[Sc diur, vesp Ac As Cs]
+4.6 -6.6 44 -1 -1 1015.1 989.8 +2.0 +7.9
З 7 30 км 8/1 900 м
[Sc diur, vesp Ac As Cs]
+4.2 -6.4 46 -1 -1 1015.3 990.1
З 8 30 км 8/1 900 м
[Sc diur, vesp Ac As Cs]
+4.4 -5.2 50 -1 -1 1015.3 990.2
З 6 30 км 8/1 900 м
[Sc diur, vesp Ac As Cs]
+4.8 -5.4 48 0 0 1015.3 990.2
З 5 30 км 8/1 900 м
[Sc diur, vesp Ac As Cs]
+4.2 -4.8 52 -0 -0 1014.9 989.8
З 3 25 км осадки на расстоянии 8/1 750 м
[Sc diur, vesp Ac As Cs]
+4.0 -3.5 58 +1 +1 1014.6 989.6
З 3 25 км осадки на расстоянии 8/1 750 м
[Sc diur, vesp Ac As Cs]
+4.2 -3.3 58 +1 +1 1014.4 989.4
З 1 25 км осадки на расстоянии 8/1 750 м
[Sc diur, vesp Ac As Cs]
+1.4 -3.4 70 -0 -0 1013.6 988.5
ЮЗ 2 25 км осадки на расстоянии 6/1 750 м
[Sc diur, vesp Ac As Cs]
+0.4 -4.6 69 -3 -3 1013.4 988.2
В 4 30 км 8/1 750 м
[Sc diur, vesp Ac As Cs]
+1.0 -3.9 70 -4 -4 1013.8 988.6
нст 3 30 км 5/3 1050 м
[Sc diur, vesp Ac As Cs]
+2.2 -3.1 68 -1 -1 1014.5 989.4
ЮЗ 3 30 км 3/3 1050 м
[Sc diur, vesp Ac As]
+0.8 -4.1 70 -3 -3 1015.4 990.1
нст 3 30 км 3/1 1050 м
[Sc diur, vesp Ac As]
+4.2 -4.8 52 +1 +1 1016.1 990.9 0.0 +4.9
З 4 30 км 1/1 1050 м
[Sc diur, vesp Ac As]
+6.8 -1.7 55 +4 +5 1017.0 991.8
ЮЗ 7 30 км 1/0
[Ac As]
+10.8 -2.8 38 +8 +9 1017.6 992.6
З 8 30 км 1/0
[Ac As]
+11.6 +0.6 47 +9 +9 1018.3 993.4
З 9 30 км 4/0
[Ac lent Cc]
+12.2 +0.2 44 +9 +10 1018.8 993.8
З 9 30 км 8/0
[Ac lent Cs]
+12.2 -0.5 41 +9 +10 1019.1 994.2
З 9 30 км 8/0
[Ac lent Cs]
+12.2 +0.9 46 +9 +10 1019.9 995.0
З 11 30 км 8/1 1350 м
[Sc diur, vesp Ac lent Cs]
+12.6 +0.2 43 +9 +9 1020.2 995.2
З 11 30 км 8/0
[Ac lent Cs]
+12.4 -1.5 38 +9 +9 1021.0 995.8
З 10 30 км 5/0
[Ac lent Ci]
+11.8 -0.4 43 +8 +8 1021.3 996.2
З 9 30 км 5/0
[Ac lent Ci]
+11.0 -1.7 41 +8 +8 1022.1 997.0
З 6 30 км 4/0
[Ac As Cs]
+9.8 -2.2 43 +7 +7 1023.5 998.2
З 5 30 км 4/0
[Ac As Cs]
+9.2 -2.4 44 +7 +7 1023.9 998.8 +4.0 +12.9
ЮВ 2 30 км 4/0
[Ac As Cs]
+8.2 -2.5 47 +7 +7 1024.9 999.8
В 2 30 км 4/0
[Ac As Cs]
+5.0 -0.9 66 +3 +3 1001.2 976.4
ЮВ 2 30 км 4/0
[Ac As Cs]
+3.8 -3.8 58 +1 +1 1027.0 1001.8
В 2 30 км 4/0
[Ac As Cs]
+1.8 -2.9 71 -1 -1 1026.7 1002.4
ЮВ 3 30 км 4/0
[Ac As Cs]
+0.8 -5.6 62 -3 -3 1027.8 1005.6
ЮВ 3 30 км 4/0
[Ac As Cs]
0.0 -5.9 64 -4 -4 1028.2 1002.9
В 3 30 км 3/0
[Ac As Cs]
-0.4 -6.2 65 -5 -5 1028.3 1003.2
В 4 30 км 3/0
[Ac As Cs]
-0.2 -7.9 56 -5 -5 1028.7 1003.4
ЮВ 3 30 км 3/0
[Ac As Cs]
-1.2 -6.7 66 -6 -6 1028.5 1003.0
В 3 30 км 3/0
[Cs]
-1.6 -7.2 66 -6 -6 1028.7 1003.3
В 2 30 км 3/0
[Cs]
-2.4 -5.1 82 -6 -6 1028.9 1003.4
ЮВ 3 30 км 3/0
[Cs]
-2.8 -4.8 86 -8 -8 1029.1 1003.4 -3.5 +9.9
В 3 30 км 4/0
[Cs]
+2.4 -3.5 65 -1 -0 1029.1 1003.6
штиль 0 30 км 4/0
[Cs]
+7.2 -1.2 55 +7 +10 1028.9 1003.6
С 3 30 км 4/0
[Ci]
+9.0 0.0 53 +7 +11 1028.6 1003.3
С 3 30 км 3/0
[Ci]
+9.2 +1.5 59 +7 +11 1028.2 1002.8
СЗ 3 30 км 3/0
[Ci]
+10.4 +0.8 51 +9 +14 1027.3 1002.0
СЗ 3 30 км 1/0
[Ci]
+11.2 0.0 46 +10 +14 1026.4 1001.0
З 4 30 км 1/0
[Ci]
+11.4 -0.4 44 +10 +12 1026.1 1000.8
СЗ 2 30 км 1/0
[Ci]
+11.6 0.0 45 +11 +13 1025.8 1000.5
ЮЗ 2 30 км 1/0
[Ci]
+12.4 +1.8 48 +12 +12 1025.6 1000.2
З 3 30 км 6/0
[Ci]
+10.8 +2.5 56 +9 +9 1025.5 1000.1
нст 2 30 км 6/0
[Ci]
+8.4 +1.7 63 +7 +7 1025.8 1000.2
нст 1 30 км 4/0
[Cs]
+5.2 0.0 69 +4 +4 1026.5 1000.8 -3.0 +12.4
нст 2 30 км 3/0
[Cs]
+2.8 -1.7 72 +1 +1 1026.9 1001.3
ЮВ 2 30 км 1/0
[Cs]
+1.4 -2.1 77 -2 -2 1026.9 1001.4
ЮВ 3 30 км 1/0
[Cs]
+0.8 -2.8 77 -3 -3 1027.2 1001.8
ЮВ 2 30 км 1/0
[Cs]
+0.6 -3.7 73 -2 -2 1027.2 1001.8
ЮВ 3 30 км ясно -0.4 -4.9 72 -4 -4 1026.9 1001.4
нст 2 30 км ясно -0.4 -6.4 64 -3 -3 1026.8 1001.4
ЮВ 2 30 км ясно -1.4 -5.4 74 -5 -5 1026.9 1001.4
ЮВ 2 30 км ясно -3.0 -6.5 77 -6 -6 1026.4 1001.0
ЮВ 2 30 км ясно -2.8 -4.8 86 -7 -7 1026.0 1000.6
ЮВ 2 30 км ясно -3.6 -5.0 90 -7 -7 1026.0 1000.5
Ю 2 30 км ясно -3.6 -5.7 85 -7 -7 1025.9 1000.0
ЮВ 2 30 км ясно -3.6 -5.0 90 -7 -7 1026.0 1000.2 -4.5 +5.4
В 1 30 км ясно +3.2 -7.1 47 +2 +3 1025.6 1000.1
нст 1 30 км ясно +8.0 -4.3 41 +9 +12 1025.4 1000.0
З 2 30 км ясно +9.0 +1.8 61 +8 +12 1025.0 999.7
З 2 30 км ясно +10.4 +2.5 58 +9 +14 1024.5 999.2
З 2 30 км ясно +11.8 +2.1 51 +11 +16 1023.7 998.5
З 3 30 км ясно +13.0 +0.8 43 +12 +16 1023.0 997.8
З 5 30 км ясно +13.4 -2.0 34 +12 +14 1022.5 997.3
З 5 30 км ясно +12.6 -0.5 40 +11 +12 1022.4 997.0
З 4 30 км ясно +11.8 +0.3 45 +10 +10 1021.9 996.6
З 2 30 км 3/0
[Cs]
+11.6 +1.2 49 +11 +11 1021.6 996.2
СЗ 2 30 км 3/0
[Cs]
+7.0 +2.2 71 +6 +6 1021.7 996.2
нст 1 30 км 3/0
[Cs]
+4.0 -0.3 74 +3 +3 1022.4 996.6 -4.5 +13.9
ЮВ 2 30 км 4/0
[Cs]
+3.4 +0.2 80 +1 +1 1022.2 996.8
ЮВ 2 30 км 5/0
[Cs]
+3.0 -1.4 73 0 0 1022.4 997.2
ЮВ 2 30 км 6/0
[Cs]
+3.4 -1.0 73 +1 +1 1022.6 997.4
В 3 30 км 6/0
[Cs]
+2.8 -1.1 75 -1 -1 1022.6 997.4
В 4 30 км 5/0
[Cs]
+2.4 -2.2 72 -2 -2 1022.4 997.3
ЮВ 3 30 км 5/0
[Cs]
+1.4 -1.4 82 -3 -3 1022.6 997.4
ЮВ 3 30 км 5/0
[Cs]
+1.0 -1.3 85 -3 -3 1022.6 997.4
В 2 30 км 5/0
[Cs]
+0.4 -1.3 88 -3 -3 1023.0 997.8
ЮВ 3 30 км 4/0
[Cs]
-1.2 -4.4 79 -6 -6 1023.6 998.4
ЮВ 2 30 км 4/0
[Cs]
-1.6 -4.9 78 -5 -5 1024.9 999.4
В 4 30 км 4/0
[Ci]
+0.2 -4.9 69 -5 -5 1025.8 1000.2 -2.0 +4.5
В 3 30 км 4/0
[Ci]
+6.0 -2.9 53 +3 +4 1026.1 1000.6
С 2 30 км 4/0
[Ci]
+9.6 -1.1 47 +8 +11 1026.4 1001.2
В 4 30 км 3/0
[Ci]
+12.4 -3.1 34 +11 +14 1026.4 1001.3
В 3 30 км 1/0
[Ci]
+14.0 -3.3 30 +14 +18 1026.5 1001.4
СЗ 3 30 км 1/0
[Ci]
+14.4 -1.0 35 +14 +19 1026.2 1001.2
СЗ 3 30 км ясно +13.8 -1.3 35 +13 +17 1025.9 1000.8
З 5 30 км ясно +13.4 +3.2 50 +12 +14 1026.5 1001.3
З 5 30 км ясно +14.4 +1.7 42 +13 +14 1026.6 1001.4
З 3 30 км ясно +13.8 +1.4 43 +13 +13 1026.5 1001.3
З 4 30 км ясно +11.0 +4.4 64 +9 +9 1026.6 1001.3
З 1 30 км ясно +8.6 +1.3 60 +8 +8 1027.3 1001.8
З 2 30 км ясно +6.0 +1.5 73 +4 +4 1027.8 1002.2 0.0 +14.9
ЮВ 2 30 км ясно +3.4 -1.0 73 +1 +1 1027.6 1002.2
Ю 1 30 км ясно +2.0 -0.8 82 +2 +2 1027.9 1002.6
В 1 30 км ясно +0.6 -2.3 81 0 0 1028.1 1002.8
ЮВ 3 30 км ясно +1.0 -2.5 77 -3 -3 1027.9 1002.6
В 1 30 км ясно +1.0 -2.5 77 -1 -1 1027.3 1002.2
Ю 3 30 км ясно -0.8 -2.6 88 -5 -5 1027.4 1002.2
В 2 30 км ясно -1.2 -2.4 92 -5 -5 1027.1 1001.8
В 1 30 км ясно -1.2 -3.0 88 -3 -3 1026.5 1001.3
Местоположение метеостанции Эль-Калафате (Аргентина): широта -50.28 долгота -72.05 высота над уровнем моря 204 м.
В архиве по умолчанию представлена погода в Эль-Калафате за последнюю неделю. Архивные данные за месяц целиком и за предыдущие месяцы, начиная с января 2011 года, Вы можете получить, выбрав интересующий диапазон дат из раскрывающегося списка и нажав кнопку "Найти!".
*Определитесь, кто Вы:
Внимание! Время в таблицах - всемирное. Для получения местного времени необходимо прибавить поправку, которая равна -3 ч.
Некоторые строки с данными для отдельных станций могут быть выделены курсивом. Это означает, что фактические данные отсутствуют по различным причинам, а приведенные значения являются расчетными модельными данными для данного пункта наблюдений.
Смотрите также архив погоды в соседних городах и на ближайших метеорологических станциях:
Партнеры нашего сайта:      
Пояснения к столбцам:
  • Ветер - указаны скорость ветра в м/с - средняя за 10 мин, порывы в срок и между сроками (в фигурных скобках) и направление, откуда дует ветер: С - северный,
  • СВ - северо-восточный, В - восточный, ЮВ - юго-восточный, Ю - южный, ЮЗ - юго-западный, З - западный, СЗ - северо-западный.
  • Видимость - горизонтальная дальность видимости в метрах или километрах. При видимости от 1 до 10 км при отсутствии осадков обычно наблюдается дымка, при ухудшении видимости до 1 км и менее - туман. В сухую погоду видимость может ухудшаться дымом, пылью или мглою.
  • Явления - указаны атмосферные явления, наблюдавшиеся в срок или в последний час перед сроком; фигурными скобками обозначены явления, наблюдавшиеся между сроками (за 1-3 часа до срока); квадратными скобками обозначены град или гололедные отложения с указанием их диаметра в мм.
  • Облачность - указаны через наклонную черту общая и нижняя облачность в баллах и высота нижней границы облаков в метрах; квадратными скобками обозначены формы облаков: Ci - перистые, Cs - перисто-слоистые, Cc - перисто-кучевые, Ac - высококучевые, As - высокослоистые, Sc - слоисто-кучевые, Ns - слоисто-дождевые, Cu - кучевые, Cb - кучево-дождевые. Подробнее классификацию облаков см. в Атласе облаков (PDF).
  • T - Температура воздуха - температура, измеренная на высоте 2 м над землей.
  • Td - Температура точки росы - температура, при понижении до которой содержащийся в воздухе водяной пар достигнет насыщения.
  • f - Относительная влажность воздуха - влажноcть воздуха, измеренная на высоте 2 м над землей.
  • Te - Эффективная температура - температура, которую ощущает одетый по сезону человек в тени. Характеристика душности погоды. При расчете учитывается влияние влажности воздуха и скорости ветра на теплоощущения человека.
  • Tes - Эффективная температура на солнце - температура, которую ощущает человек, с поправкой на солнечный нагрев. Характеристика знойности погоды. Зависит от высоты солнца над горизонтом, облачности и скорости ветра. Ночью, в пасмурную погоду, а также при ветре 12 м/с и более поправка равна нулю.
  • P - Атмосферное давление - приведенное к уровню моря атмосферное давление.
  • Po - Атмосферное давление - измеренное на уровне метеостанции атмосферное давление.
  • Tmin - Минимальная температура - минимум температуры воздуха на высоте 2 м над землей.
  • Tmax - Максимальная температура - максимум температуры воздуха на высоте 2 м над землей.
  • R - Количество осадков - Количество выпавших осадков за период времени, мм. При наведении курсора мыши на число - период времени, за который выпало указанное количество осадков.
  • R24 - Количество осадков - Количество выпавших осадков за 24 часа, мм.
  • S - Снежный покров - Высота снежного покрова, см. При наведении курсора мыши на число - состояние снежного покрова и степень покрытия местности в баллах.